TimeMDT,TemperatureF,Dew PointF,Humidity,Sea Level PressureIn,VisibilityMPH,Wind Direction,Wind SpeedMPH,Gust SpeedMPH,PrecipitationIn,Events,Conditions,WindDirDegrees,DateUTC
12:15 AM,44.6,23.0,43,29.99,10.0,NW,6.9,-,N/A,,Clear,320,2012-10-03 06:15:00
12:35 AM,44.6,24.8,46,29.98,10.0,NNW,5.8,-,N/A,,Clear,340,2012-10-03 06:35:00
12:55 AM,42.8,23.0,46,29.99,10.0,NNW,9.2,-,N/A,,Clear,330,2012-10-03 06:55:00
1:15 AM,42.8,23.0,46,29.99,10.0,North,6.9,-,N/A,,Clear,350,2012-10-03 07:15:00
1:35 AM,42.8,23.0,46,29.98,10.0,NNW,6.9,-,N/A,,Clear,340,2012-10-03 07:35:00
1:55 AM,41.0,23.0,49,29.98,10.0,NNW,6.9,-,N/A,,Clear,340,2012-10-03 07:55:00
2:15 AM,41.0,23.0,49,29.98,10.0,NNW,8.1,-,N/A,,Clear,340,2012-10-03 08:15:00
2:35 AM,39.2,23.0,52,29.99,10.0,NW,9.2,-,N/A,,Clear,320,2012-10-03 08:35:00
2:55 AM,39.2,21.2,49,30.00,10.0,NNW,8.1,-,N/A,,Clear,340,2012-10-03 08:55:00
3:15 AM,41.0,21.2,45,30.00,10.0,NNW,10.4,-,N/A,,Clear,330,2012-10-03 09:15:00
3:35 AM,41.0,19.4,42,29.99,10.0,NNW,10.4,-,N/A,,Clear,330,2012-10-03 09:35:00
3:55 AM,39.2,19.4,45,29.99,10.0,NNW,6.9,-,N/A,,Clear,340,2012-10-03 09:55:00
4:15 AM,37.4,19.4,48,30.00,10.0,NNW,5.8,-,N/A,,Clear,330,2012-10-03 10:15:00
4:35 AM,37.4,19.4,48,30.00,10.0,NW,8.1,-,N/A,,Clear,320,2012-10-03 10:35:00
4:55 AM,37.4,19.4,48,30.00,10.0,NNW,6.9,-,N/A,,Clear,340,2012-10-03 10:55:00
5:15 AM,37.4,19.4,48,30.00,10.0,North,5.8,-,N/A,,Clear,350,2012-10-03 11:15:00
5:35 AM,37.4,19.4,48,30.00,10.0,NW,5.8,-,N/A,,Clear,320,2012-10-03 11:35:00
5:55 AM,37.4,19.4,48,30.00,10.0,NNW,5.8,-,N/A,,Clear,330,2012-10-03 11:55:00
6:15 AM,37.4,19.4,48,30.01,10.0,NNW,10.4,-,N/A,,Clear,330,2012-10-03 12:15:00
6:35 AM,37.4,19.4,48,30.02,10.0,North,5.8,-,N/A,,Clear,350,2012-10-03 12:35:00
6:47 AM,39.2,17.6,42,30.03,10.0,NNW,5.8,-,N/A,,Clear,340,2012-10-03 12:47:00
6:55 AM,35.6,19.4,52,30.02,10.0,WNW,6.9,-,N/A,,Clear,300,2012-10-03 12:55:00
7:50 AM,37.4,15.8,41,30.02,10.0,Calm,Calm,-,N/A,,Clear,0,2012-10-03 13:50:00
8:48 AM,37.4,15.8,41,30.05,10.0,Calm,Calm,-,N/A,,Clear,0,2012-10-03 14:48:00
9:47 AM,50.0,15.8,26,30.08,10.0,NNW,5.8,-,N/A,,Clear,330,2012-10-03 15:47:00
10:47 AM,57.2,5.0,12,30.11,10.0,WNW,15.0,-,N/A,,Clear,300,2012-10-03 16:47:00
11:47 AM,57.2,19.4,23,30.15,10.0,SE,11.5,-,N/A,,Clear,130,2012-10-03 17:47:00
12:47 PM,57.2,24.8,29,30.17,7.0,SSE,15.0,25.3,N/A,,Clear,160,2012-10-03 18:47:00
1:47 PM,55.4,24.8,31,30.18,7.0,SSE,13.8,25.3,N/A,,Clear,150,2012-10-03 19:47:00
2:47 PM,57.2,24.8,29,30.19,7.0,SSE,12.7,25.3,N/A,,Clear,160,2012-10-03 20:47:00
3:47 PM,55.4,23.0,29,30.20,10.0,SSE,12.7,21.9,N/A,,Clear,150,2012-10-03 21:47:00
4:47 PM,55.4,23.0,29,30.21,10.0,SE,13.8,21.9,N/A,,Clear,140,2012-10-03 22:47:00
5:47 PM,55.4,23.0,29,30.23,10.0,SE,10.4,-,N/A,,Clear,140,2012-10-03 23:47:00
6:47 PM,51.8,23.0,33,30.23,10.0,SSE,6.9,-,N/A,,Clear,150,2012-10-04 00:47:00
7:47 PM,46.4,21.2,37,30.24,10.0,SE,3.5,-,N/A,,Clear,130,2012-10-04 01:47:00
8:47 PM,42.8,19.4,39,30.26,10.0,ESE,5.8,-,N/A,,Clear,110,2012-10-04 02:47:00
9:50 PM,41.0,17.6,39,30.25,10.0,Calm,Calm,-,N/A,,Clear,0,2012-10-04 03:50:00
10:47 PM,39.2,19.4,45,30.26,10.0,West,4.6,-,N/A,,Clear,280,2012-10-04 04:47:00
11:15 PM,39.2,21.2,49,30.27,10.0,NW,6.9,-,N/A,,Clear,320,2012-10-04 05:15:00
11:35 PM,37.4,21.2,52,30.27,10.0,WNW,8.1,-,N/A,,Clear,300,2012-10-04 05:35:00
11:55 PM,35.6,19.4,52,30.27,10.0,WNW,10.4,-,N/A,,Clear,300,2012-10-04 05:55:00